Quantcast
Maps Points of Interest Search F.A.Q. Tutorial Download Forums About us

Lesser Faydark

Enter a custom location to show on the map:
  custom loc 
252 POI's in Lesser Faydark
UID Name Type /Loc Submitter Date
64588 Evoker Nideela Quest update NPC -120.87, -55.22, -242.43 Kral 12/27/16
63130 The Gladehoof Acre Site 109.47, -17.13, 153.30 -Daybreak- 11/17/16
62891 Tunare Avatar Monster Named 204.00, -18.00, -234.00 Porenn 05/15/15
61854 Ramp Object location -697.48, -56.34, 544.32 EvilDIE 11/25/14
61616 Tunare Avatar Monster Named -82.54, -47.00, 362.15 Elfrina 09/18/14
60750 Revive Point Respawn 785.11, 110.19, -349.97 McJeff 10/13/13
59430 Tunare Monster Named -679.54, -52.97, -123.77 H1rte 12/27/12
59429 Tunare Monster Named -178.02, -51.26, 241.61 H1rte 12/27/12
59428 Tunare Monster Named -674.99, -60.93, 513.93 H1rte 12/27/12
59427 Tunare Avatar Site -107.21, -52.20, -367.78 H1rte 12/27/12
59331 The Fae Court Site -325.41, -55.46, 281.06 Pomodorro 12/12/12
59324 The Fae Drake Breeding Grounds Site 624.94, 30.51, -27.58 Pomodorro 12/12/12
59323 The Aphotic Intersection Site 329.64, -21.19, 33.65 Pomodorro 12/12/12
59322 Tunare's Grove Site -312.25, -51.86, -196.56 Pomodorro 12/12/12
59321 The Village of Panderpana Site -626.94, -46.38, -176.25 Pomodorro 12/12/12
59320 The Hand of Reclamation Site -744.65, -38.40, 352.28 Pomodorro 12/12/12
58524 purple thyme Quest update location -311.33, -59.77, -325.60 Ventnoir 11/11/12
58022 Climbable Wall Cave entrance 362.84, -31.59, -365.68 flameweaver 08/14/12
57490 Meditation Mat Quest update location 728.79, 88.96, -294.64 mysticspiral 06/23/12
57452 Urtt Monster Solo 668.85, 70.87, -296.57 AngelusBT 06/10/12
55364 Fae Court Tunnel Site -292.00, -41.93, 130.59 -Daybreak- 11/17/16
54957 Camp Nybright Site 41.95, -11.24, 291.69 nachtus01 08/20/11
54956 Fae Court Tunnel Site -282.17, -42.88, 147.96 nachtus01 08/20/11
54955 The Fae Court Site -243.91, -55.65, 368.93 nachtus01 08/20/11
54900 Sage Grappodutt Quest update location -403.95, -33.06, -3.51 Cuppiecake 08/06/11
54849 A Dirty Doll Quest update location 861.14, -37.56, 507.43 zyorel 07/24/11
54413 Heartwood Master's Burial Site Quest update location -739.34, 5.27, -334.07 ElhonnaKaerlisk 06/01/11
53754 Tuilla Laarivera NPC -267.48, -56.98, 407.43 ambercat13 03/10/11
52812 Realm of the Earth Turtle Quest update location -0.04, -64.75, 209.89 Warrl 02/24/11
52487 Rid Jestands Quest update NPC 115.32, -22.23, 320.64 Gezak 12/18/10
52414 Esthella Evenheart Quest update NPC 73.16, -93.84, 327.69 Purgpow 12/07/10
49578 Myronos Zosimos Monster Named 106.67, 14.73, -472.36 itpaladin 03/14/10
49474 Wolf attack spot for HQ - Casualties of the War of the Fay Monster Heroic 311.97, -27.50, 262.59 itpaladin 03/09/10
48100 Grovespirit Callers and grovespirit Acolytes Monster Solo -107.15, -53.18, -248.44 DavidSachs 02/01/10
48094 Wenjii Glittermoon Monster Named -333.43, -58.74, -276.74 foozlesprite 01/31/10
47970 Faydark Sorghum Quest update location -494.96, -57.53, -252.35 Tallarain 01/13/10
47774 Grovespirit Callers and grovespirit Acolytes Monster Solo -318.12, -53.10, 517.61 Dazey 12/17/09
47752 Fae Drake Breeding Grounds Site 931.51, 138.94, -395.43 Kyklopes 12/12/09
47520 game stone spawn point Quest update location 772.19, 112.19, -353.82 DavidSachs 11/08/09
47519 game stone spawn point Quest update location 763.36, 119.98, -382.03 DavidSachs 11/08/09
44724 Hanhao Quest update NPC 828.04, 117.08, -360.82 johnsl 10/19/09
44598 Ameth'Spar Monster Named -22.50, -76.45, 319.39 aalange 10/11/09
44593 Inara NPC 595.00, 66.00, -36.00 Nyrac 10/10/09
44490 Melanog NPC 255.96, -55.36, -179.48 djreilly101 10/01/09
44485 Crown Point Quest update location -630.00, -21.00, 326.00 LylakNightangel 09/30/09
44478 Entrance to Caverns Cave entrance 354.08, 9.49, -107.30 dinghao 09/30/09
44477 Myconid Fungus Nursery Site 431.18, -20.17, -363.23 dinghao 09/30/09
44476 Cave to Emerald Gulch Cave entrance 144.00, -1.54, -521.53 dinghao 09/30/09
44474 climbable shaft Cave entrance 258.63, -23.67, -183.80 dinghao 09/30/09
44417 The Nest of the Patriarch Site 825.18, 148.20, -510.43 sciari 09/26/09
43639 A dirty doll Quest update location 797.25, -37.70, 410.16 Sigrid 07/18/09
43419 Feydew Mushroom Quest update location -526.62, -51.69, 227.18 igthar 06/27/09
43114 Urtt Monster Solo 73.71, -20.86, -88.97 dinghao 06/12/09
42783 Brownie Sages Quest update location -700.00, -50.00, -150.00 Dullimite 05/17/09
42719 Serith Ludd Quest starter NPC 128.00, -21.00, 307.00 reventlow 05/10/09
42718 Grund Quest starter NPC 108.00, -22.00, 295.00 reventlow 05/10/09
41995 game stone spawn Quest update location 722.16, 93.42, -319.92 ppeak 03/22/09
41849 Dirty Doll Quest update location 776.87, -40.61, 380.12 templarishtar 03/11/09
41731 Twisted Nightshade Quest update location 682.66, -30.09, 401.45 Flipflash 03/02/09
41720 A Dirty Doll Quest update location 820.87, -41.51, 464.89 Flipflash 03/01/09
41678 twisted nightshade Quest update location 574.24, -38.99, 544.53 Zendaken 02/25/09
41545 Nightblood Invader Monster Solo 322.31, -36.39, 447.65 Xixa 02/15/09
41306 Game Stone Quest update location 772.00, 3112.00, 11.00 Darn 02/01/09
41100 Treespirit Thumpers and Piercers Monster Solo -55.51, -29.18, -203.67 LinaInverse 01/27/09
41099 Growth Slither Monster Solo -425.16, -35.72, 15.64 LinaInverse 01/27/09
41064 Tuurho Tuiijah NPC -275.97, -56.98, 429.67 SixSigma1978 01/25/09
41063 Annisi Illari NPC -281.62, -57.09, 413.35 SixSigma1978 01/25/09
40721 Urtt (Lvl 60^) Monster Solo 28.70, -26.10, 244.67 Nibiru2012 01/14/09
40712 Dirty Doll Quest update location 844.65, -39.46, 426.13 daugava 01/13/09
40467 Kosaner Monster Named -590.88, -57.36, 438.69 drake8595 01/03/09
40458 Thexian scribe Monster Solo -696.10, -38.84, 242.59 kefas36 01/02/09
40394 An Essence of Growth Monster Named -113.75, -53.80, -222.52 Sev92 12/30/08
40388 A Dirty Doll Quest update location 769.30, -41.21, 419.43 rooboo 12/30/08
40359 a follower of Wu Quest update NPC 807.86, 110.10, -306.69 jnils 12/29/08
40357 Brownie Camp Outpost -364.51, -1.09, -4.30 Dodd 12/29/08
40263 Treespirits for Tana's Task Monster Solo -569.79, -41.06, 274.01 mjones1052 12/25/08
40249 A Dirty Doll Quest update location 801.20, -40.71, 442.77 enalia 12/25/08
40135 The Myconid Prince Monster Named 457.61, -16.70, -490.66 SirMaggot 12/21/08
40083 faewood arbiters Monster Solo -209.38, -60.88, -251.17 Raull 12/17/08
40081 fayllian vicars Monster Solo -90.59, -55.55, -191.18 Raull 12/17/08
39754 Taerenun Malvyr Quest update NPC 550.00, 40.00, 410.00 healeo 12/06/08
39668 A Dirty Doll Quest update location 858.44, -42.20, 476.91 Kelyn 12/03/08
39480 Avatar of growth Monster Named -281.64, -57.79, -348.57 Mottoko 11/29/08
39408 Ledger Quest update location -97.33, -11.12, 6.02 molier 11/27/08
39358 First Lt T'Vyls Monster Heroic 866.15, 103.45, -329.46 Qark 11/26/08
38873 Climbable wall in Thexian camp Reverse Eng Part 2 Object location -561.00, -63.00, 394.00 Elfrina 11/19/08
38698 Sharina Nybright NPC 106.61, -22.23, 297.09 realplasma 10/26/08
36745 Fugutr Tribe Outpost 105.79, 15.53, -373.05 -Daybreak- 11/17/16
36744 Village of Panderpana Site -590.00, -27.00, -355.00 -Daybreak- 11/17/16
36743 Shadowed Grove Site 592.00, -19.00, 483.00 -Daybreak- 11/17/16
36742 Great Hive Site 5.00, -44.00, 488.00 -Daybreak- 11/17/16
36741 Great Tree Site -238.00, -59.00, -365.00 -Daybreak- 11/17/16
36740 Tunare's Grove Site -190.00, -60.00, -259.00 -Daybreak- 11/17/16
36739 Nybright Camp Outpost 106.00, -19.00, 317.00 -Daybreak- 11/17/16
36738 Fae Court Outpost -279.00, -56.00, 427.00 -Daybreak- 11/17/16
36737 Camp of the Legendary Wu Outpost 803.00, 110.00, -317.00 -Daybreak- 11/17/16
36736 To Butcherblock Mountains Overland 620.00, 86.00, -422.00 -Daybreak- 11/17/16
36735 To Loping Plains Overland 147.00, -23.00, 479.00 -Daybreak- 11/17/16
36734 To Greater Faydark Overland -744.00, -55.00, 127.00 -Daybreak- 11/17/16
36733 Tower of Zet Door 764.00, -41.00, 463.00 -Daybreak- 11/17/16
36732 Aphotic Intersection Outpost 355.75, -21.23, 163.72 -Daybreak- 11/17/16
36731 Brute Hill Site 373.91, -32.48, 502.06 -Daybreak- 11/17/16
36730 Crown Point Site -619.76, -17.27, 349.32 -Daybreak- 11/17/16
36729 The Fae Drake Breeding Grounds Site 661.41, 31.37, -24.53 -Daybreak- 11/17/16
36728 Nest of the Patriarch Site 943.80, 169.89, -511.34 -Daybreak- 11/17/16
36727 The Emerald Gulch Site 196.49, -0.72, -554.33 -Daybreak- 11/17/16
36726 Emerald Halls Hollow Site 185.62, -32.05, -409.50 -Daybreak- 11/17/16
36725 The Ring of the Fayllian Queen Site -332.95, -59.93, -296.23 +Daybreak+ 05/31/11
36724 Hearth Cymenea Site 108.58, 13.72, -466.96 -Daybreak- 11/17/16
36723 Myconid Fungus Nursery Site 373.93, 11.41, -110.80 -Daybreak- 11/17/16
36722 The Faydark Passage Site -353.25, -34.19, 52.39 -Daybreak- 11/17/16
36720 The Gladehoof Acre Site 138.84, -23.29, 54.85 +Daybreak+ 11/16/14
36719 The Hidden Grotto Site 1.04, -59.53, 251.00 -Daybreak- 11/17/16
36718 The Loa'Sur Site 136.96, -0.30, -420.88 -Daybreak- 11/17/16
36717 Cavern of the Myconid Prince Site 357.10, -29.83, -409.58 -Daybreak- 11/17/16
36716 The Lovers Vista Site 89.06, 10.11, 267.83 -Daybreak- 11/17/16
36715 The Snake's Head Site 20.15, -25.08, 177.89 -Daybreak- 11/17/16
36714 The Hand of Reclamation Site -598.72, -61.47, 475.28 -Daybreak- 11/17/16
36713 The Forward Post Site -94.81, -11.12, 13.91 -Daybreak- 11/17/16
36712 Glade of the Unicorns Site 91.39, -24.02, -138.29 -Daybreak- 11/17/16
36711 The Sharpthorn Thicket Site -650.70, -54.05, 217.58 -Daybreak- 11/17/16
36710 The Mossy Stump Site -70.33, -16.54, -295.06 -Daybreak- 11/17/16
36709 Trun'gul Nybright <<Mender>> Armor 112.36, -22.23, 337.49 -Daybreak- 11/17/16
36708 Jolrina Nybright <<Black Market Goods>> Shop 108.16, -22.23, 337.95 -Daybreak- 11/17/16
36707 Ja'gul Nybright <<Import Export>> Shop 106.05, -22.23, 332.42 -Daybreak- 11/17/16
36706 Fu Laiang <<Traveling Merchant>> Shop 818.51, 109.99, -311.52 -Daybreak- 11/17/16
36705 Lady Koivuu <<Royal Merchant>> Shop -292.03, -56.97, 424.44 -Daybreak- 11/17/16
36704 Loping Plains Stable Horse 115.21, -21.74, 392.28 -Daybreak- 11/17/16
36703 Upper grove Stable Horse -61.99, -15.11, -104.00 -Daybreak- 11/17/16
36702 Lower grove Stable Horse -91.26, -55.55, -186.42 -Daybreak- 11/17/16
36701 Greater Faydark Stable Horse -653.14, -53.90, 131.99 -Daybreak- 11/17/16
36700 Fae Court Stable Horse -178.42, -53.65, 368.92 -Daybreak- 11/17/16
36699 Butcherblock Stable Horse 674.89, 78.58, -311.84 -Daybreak- 11/17/16
36698 Pei Pei <<Mender>> Armor 818.29, 109.99, -299.56 -Daybreak- 11/17/16
36697 Lord Shae <<Royal Mender>> Armor -289.80, -56.97, 446.07 -Daybreak- 11/17/16
35672 It's Better Than Bad , It's Good Object location -308.00, -53.00, -195.00 Elfrina 08/27/08
35671 Entrance to Thxian Camp Quest Reverse Engineering Object location -702.00, -39.00, 262.00 Elfrina 08/26/08
35512 Old Dimshimmer Monster Named 958.84, 174.26, -507.71 foozlesprite 07/11/08
35304 Blurrp Braveblade NPC -262.41, -67.19, 369.43 lomonacov 06/13/08
35279 Wetlands Skimmers Monster (Replace) 135.20, -16.79, 129.20 lomonacov 06/04/08
35186 Gladehoof Protectors Monster (Replace) 75.50, -21.00, -22.90 Cikiwaun 05/15/08
35135 Gladehoof Defenders Monster (Replace) -48.24, -14.43, -79.95 Cikiwaun 04/26/08
34881 War-torn Apparitions Monster (Replace) 379.00, -33.00, 494.00 ruv 03/10/08
34788 loc to spawn Bristlecone Object location 818.90, -40.20, 430.51 Morduccaj 03/02/08
34720 High Priestess Y'Lask Monster Named -97.79, -11.12, 6.54 Morduccaj 02/20/08
34715 Grand Master Lu Sun NPC 781.20, 111.61, -279.52 pettil 02/18/08
34619 Uric M'Ots NPC 93.10, -22.23, 300.98 donelkins 02/09/08
34213 Thexian mobs Monster Heroic -619.00, -17.00, 350.00 WorshipSmack 12/24/07
33780 Honeybrood Stingers Monster (Replace) -123.00, -55.00, 408.00 Treese 11/26/07
32360 Guard Captain Gruffitt Monster Named -538.00, -12.00, -292.00 Pijotre 07/26/07
32328 spirit of magic Monster Named 126.81, -1.06, -372.07 slackmessiah 07/17/07
32230 The Aphotic Intersection - North or West End Object location 618.59, 32.75, -14.05 Daggan 07/05/07
32158 Statuette of Sir Gubbin Object location 791.00, -38.00, 523.00 FireForkTS 06/20/07
32107 Malagate Monster Named 104.00, -86.00, 276.00 TW Shrub 06/09/07
32049 The Emerald Halls: Guardian of Growth Zone 176.98, -0.46, -604.56 Aeudian 05/30/07
31913 Faewood Arbiters Monster (Replace) -258.83, -48.12, -197.46 Crystallyne.net 05/24/07
31850 Mushroom Caves - Lower Entrance Cave entrance 151.00, -18.00, -387.00 fgbrooks 05/15/07
31849 Mushroom Caves - Upper Entrance Cave entrance 160.00, 11.00, -395.00 fgbrooks 05/15/07
31812 Shadowed Grove Entrance Site 340.00, -37.00, 316.00 fgbrooks 05/10/07
31587 Kalmath Gusinga NPC -474.21, -46.20, -238.85 realplasma 04/01/07
31457 Kalmath Gusinga NPC -49.19, -36.37, 243.55 Drakah 03/11/07
31442 Ironwood the Cruel for Curruption in the Faydark quest Monster Named -69.51, -16.81, -284.92 conifix 03/07/07
31436 The Priestess of Lesser Faydark Clue 4 - Torn Page A book page 239.00, -21.00, -52.00 Bamkin 03/05/07
31435 The Priestess of Lesser Faydark Clue 3 - Dried River Mud Object location 337.00, -20.00, 148.00 Bamkin 03/05/07
31434 The Priestess of Lesser Faydark Clue 2 - Hair Ribbon Under Stone Object location 619.00, 29.00, -35.00 Bamkin 03/05/07
31433 The Priestess of Lesser Faydark Clue 1 - Fabric Under Stone Object location 691.00, 62.00, -253.00 Bamkin 03/05/07
31396 Lore and Legend: Brownie A quest (Replace) -89.22, -55.17, -202.20 JSNolan 02/28/07
31380 Ignatios - Fugutr Wiseman NPC -527.85, -60.86, 414.64 Taylinn 02/25/07
31335 Zha Gu'Lau NPC -408.85, -33.65, 54.67 hkmaron 02/18/07
31328 Forward Outpost of the Thexians Object location -97.55, -11.12, 4.85 Danrus 02/16/07
31316 Lesser Growth Essence Monster (Replace) -563.80, -56.89, -28.92 lylli 02/13/07
31314 Lost messages for Kalmath Quest update location -664.42, -52.80, 211.48 lylli 02/12/07
31276 Alameth Ludd for execution Quest Monster (Replace) 545.00, -16.00, 474.00 gracjanski 02/07/07
31275 Paariio Huttoo for execution Quest Monster (Replace) 344.00, -20.00, 149.00 gracjanski 02/07/07
31265 Fae Drake Whelps Monster (Replace) -263.00, -40.00, -107.00 Zenpo 02/05/07
31231 Count Jooliin NPC -263.66, -56.98, 425.25 JSNolan 01/29/07
31200 Viiljo Aelli NPC -299.08, -56.98, 443.75 Yllas 01/26/07
30998 Aleta Rannikko NPC 307.46, -21.20, 189.30 kwmatthews 01/10/07
30931 Bristlecone Monster Named 800.33, -38.55, 512.04 Monkums 01/04/07
30915 An Essence of Growth Monster Named -118.00, -218.00, 0.00 Eszti 01/02/07
30904 An evening jaunt update point Object location 118.00, 12.00, -452.00 rigil 12/31/06
30880 Lock and Key Quest A quest (Replace) 833.45, 136.42, -446.52 jamilah 12/29/06
30879 Avatar of Tranquility Monster Named 812.16, 136.17, -480.19 jamilah 12/29/06
30834 Privus Nocte NPC 114.00, -22.23, 331.07 Sevenduzt 12/24/06
30823 clickable brackens on wall in the cave for mycotoxins quest A quest (Replace) 244.00, -44.00, -373.00 gracjanski 12/23/06
30822 a thexian strategist ^^^ for Joining the Family quest Monster (Replace) -598.00, -61.00, 472.00 gracjanski 12/23/06
30821 ledger for catching up with the thexians A quest (Replace) -97.00, -10.00, 4.00 gracjanski 12/23/06
30820 drinks samples for Acting on a hunch A quest (Replace) -585.00, -61.00, 486.00 gracjanski 12/23/06
30815 Equestrielle the Corrupt 60^^^ Monster Named 721.75, -35.26, 391.49 skatseam 12/21/06
30633 Ironwood the Cruel A quest (Replace) -64.54, -16.66, -298.30 zedu 11/30/06
30609 Purple Thyme Quest update location -129.00, -55.00, -351.00 gracjanski 11/28/06
30604 South Entrance to Fay Court Tunnel Cave entrance -272.00, -44.00, 172.00 Avendell 11/28/06
30521 Dragoon K'Geth Monster Named 200.21, 14.95, -279.49 Madmoxi 11/25/06
30512 Monk Ootani for Deity Quest - Peace Through Games NPC 794.93, 110.19, -331.71 Jessabelle 11/25/06
30496 Cognoggin 5000 Monster Named -540.66, -56.54, -47.51 Veeshaa 11/24/06
30495 Avatar of Growth Monster Named -242.00, -49.00, -340.00 StoneRook 11/24/06
30488 Crown Point Monster Heroic -620.96, -17.34, 347.85 sachin 11/24/06
30435 Dragoon Cpt. K'Venx Monster Named 322.56, 1.22, 560.37 jr3zx 11/23/06
30432 Hive Queen Monster Named -121.81, -45.08, 490.78 sachin 11/23/06
30431 Sage Delkkumn Monster Named -437.27, -55.31, -184.61 Pijotre 11/23/06
30430 Mendeputt Monster Named -590.63, -27.90, -355.61 Pijotre 11/23/06
30429 Arch Druid Zappodill Monster Named -474.41, -54.12, -272.39 Pijotre 11/23/06
30428 Sage Dappoditt Monster Named -528.62, -38.73, 228.00 Pijotre 11/23/06
30417 Place Holy Symbol A quest (Replace) 457.02, -35.91, 365.65 robear0001 11/22/06
30413 Faydark Sorghum A quest (Replace) -535.90, -48.66, -239.17 robear0001 11/22/06
30412 Sap from Rare Vines_What it All Means Quest A quest (Replace) -179.90, -58.30, -295.48 robear0001 11/22/06
30378 The Village of Panderpana Object location -486.64, -57.35, -227.82 DeeZaster 11/22/06
30377 Treespirits Monster (Replace) -65.64, -16.69, -286.70 DeeZaster 11/22/06
30297 Plant Seed A quest (Replace) 316.00, -35.22, 404.23 robear0001 11/21/06
30296 A Dirty Doll Quest update location 812.21, -37.48, 389.87 Khellendrathas 11/20/06
30275 Young Unicorns Monster (Replace) 81.30, -23.49, 58.41 MoonDrake 11/20/06
30274 Brownies 50 - 55 Monster (Replace) -579.30, 27.76, -343.57 MoonDrake 11/20/06
30246 Helena Flutterling NPC -279.73, -57.54, 442.48 microbolt 11/19/06
30211 Treespirit Crusher, Scryer, Barkstripper, Leafcaller Monster (Replace) 310.40, -24.10, -284.43 Odrana 11/19/06
30188 A Tranquil Cave Zone 970.49, 142.02, -472.23 Drizimar 11/19/06
30176 North entrance to Fae Court Tunnel Cave entrance -309.01, -31.54, 37.50 Pheromone 11/18/06
30099 Kurina Nybright NPC 105.54, -22.23, 298.83 Odrana 11/18/06
30098 Tuck Longtoes NPC 107.30, -22.23, 312.96 Odrana 11/18/06
30097 High Dragoon N'Mar Monster Named -602.14, -61.47, 487.61 Odrana 11/18/06
30047 Truffle Snuffler Monster Named 452.89, -20.88, -295.65 kojuro 11/17/06
30046 Faydark Amanita A quest (Replace) 476.85, -22.08, -271.94 kojuro 11/17/06
29992 Evac Point Object location -669.47, -54.63, 117.90 Xiingwolf 11/16/06
29979 Annelo Jukko NPC 312.63, -21.16, 179.56 Xiingwolf 11/16/06
29976 Wu's Edict of Existence: Mat A quest (Replace) 728.81, 89.12, -295.61 kojuro 11/16/06
29975 Pinjya Viivi NPC 373.27, -20.64, 143.85 Xiingwolf 11/16/06
29974 Kaari Eesah NPC 373.13, -21.20, 171.06 Xiingwolf 11/16/06
29946 Vergo Stormherald NPC 748.00, 116.00, -393.00 Mandeesa 11/16/06
29925 A greedy bandit Quest update NPC 23.00, -26.00, 240.00 shenDK 11/16/06
29913 Quest NPC Peetriini Suulo NPC 326.65, -19.86, 155.10 Charizma 11/16/06
29912 Fulassi Suulo's corpse Quest update location 718.00, -33.00, 485.00 shenDK 11/16/06
29883 Climbable Wall Object location -77.72, -44.58, -128.59 Farqor 11/15/06
29880 Uko NPC -99.11, -55.55, -197.05 Farqor 11/15/06
29879 Tana NPC -684.37, -55.30, 105.76 sachin 11/15/06
29877 Twisted Nightshade Object location 626.52, -24.03, 420.30 sachin 11/15/06
29875 Monument Stone- The Battle of Brute Hill Monster (Replace) 359.16, -30.14, 494.79 sachin 11/15/06
29873 Master Kyau (Disciple of Wu) NPC 850.58, 138.30, -468.02 sachin 11/15/06
29870 Inara-Quest Line for Uko's Mentor NPC 596.75, 66.02, -34.95 sachin 11/15/06
29852 Captain Trueshot NPC 940.00, 80.00, -179.00 Goit 11/15/06
29817 Ail the Elder Monster Named -619.00, -17.00, 350.00 Cazzy 11/15/06
29646 Sharpthorn Thicket Monster (Replace) -636.00, -56.00, 187.00 Hopuk 11/10/06
29645 Thexian area Monster (Replace) -616.00, -60.00, 433.00 Hopuk 11/10/06
29644 Glade of the Unicorns Monster (Replace) 191.00, -21.00, -260.00 Hopuk 11/10/06
29643 Melanog Monster Named 248.00, -52.00, -176.00 Hopuk 11/10/06
29642 Emerald Hall Shallows Object location 354.00, 9.00, -106.00 Hopuk 11/10/06
29641 Emerald Hall Shallows Object location 175.00, -31.00, -402.00 Hopuk 11/10/06
29639 Arloona Delyssa NPC -246.00, -56.00, -384.00 Hopuk 11/10/06
29637 Th'Las Wildwood NPC -106.00, -12.00, -42.00 Hopuk 11/10/06
29636 Hidden Grotto Object location -4.00, -57.00, 225.00 Hopuk 11/10/06
29634 Fae Drake Breeding Ground Monster (Replace) 659.00, 25.00, -80.00 Hopuk 11/10/06
29632 Snake's Head Monster (Replace) 129.00, -16.00, 158.00 Hopuk 11/10/06
29501 To the Emerald Halls Zone 165.21, 1.54, -645.31 johnathanbtn 11/09/06
29457 Xylem the Unflexible Monster Named -64.54, -16.66, -298.30 Jiawkad 11/09/06

 
Login
Username
Password
Official Project
This is an official community team project supported by EQ2Interface.com
Current Stats
There are currently 31,844 points of interest on 892 maps.

New POIs:
» a fallen bench
  Lost City of Torsi...
» a fallen bench
  Lost City of Torsi...
» a fallen bench
  Lost City of Torsi...
» a Languid Guar...
  Charasis: Vault of...
» an Dormant Gua...
  Charasis: Vault of...
» an Entranced G...
  Charasis: Vault of...
» a Torpid Guardian
  Charasis: Vault of...
» a sepulcher sk...
  Charasis: Vault of...
» switch
  Charasis: Vault of...
» Lock of Nightmare
  Charasis: Vault of...
» a helot skeleton
  Charasis: Vault of...
» a bottomless f...
  Charasis: Vault of...
» a helot skeleton
  Charasis: Vault of...
» a haunting spe...
  Charasis: Vault of...
» a helot spirit
  Charasis: Vault of...

EQ2Interface
EQ2MAP Copyright ?2004 - Hosted by: EQ2Interface.com
Everquest II is a registered Trademark of Daybreak Game Company.